LiveATC.Net - Listen to live air traffic control over the Internet! Contact LiveATC.net for advertising information


ICAO: YPPH  IATA: PER   Airport: Perth International Airport
City: Perth   State/Province: Western Australia
Country: Australia   Continent: Oceania
YPPH METAR Weather: YPPH 231030Z 21005KT CAVOK 16/08 Q1021
YPPH Flight Activity (FlightAware)
YPPH Gnd/Twr/App/Dep
Feed Status: UP   Listeners: 12
Listen right in your browser - requires Flash (in browser, requires Flash)
Click here to listen with your own player (launches your MP3 player)
YPPH Gnd/Twr/App/Dep Audio Archives
FacilityFrequency
Perth Approach123.600
Perth Departure118.700
Perth Ground121.700
Perth Tower120.500


NOTICE

Unauthorized use prohibited. See LiveATC.net Terms of Service


Find LiveATC Audio Streams


Airport/ARTCC Code

Frequency
(e.g., 124.400, 128.75)
Site-wide search

Browse LiveATC Feeds
LiveATC Coverage Map
Top 50 LiveATC Feeds
Bad Weather Areas

LiveATC FAQ
Offer a LiveATC Feed
Contact LiveATC.net
Press Inquiries

LiveATC on iPhone
LiveATC on Android

LiveATC Mobile
(Mobile browser)

ATC Audio Archives
Interesting Recordings

LiveATC Forums


Home Page
About LiveATC.net
Make a Donation
LiveATC Bookstore

Terms of Use
Privacy Policy

ATC/Radar Sites
U.S. ARTCC Freqs
Canadian Air Freqs

AIRMETs/SIGMETs

FAA Airport Status
Nat'l Airspace Status
Arrival Demand Charts


Server Software By:
Icecast.org
Liquidsoap

Please make a donation to help us keep growing!